Regional Weather Roundup
Issued by NWS Midland/Odessa, TX

Skip options and go directly to product.
Home | Oldest Version | Previous Version | Current Version | All | Text Only | Save Text | Print | Product List | Glossary On

Skip product version selection by date and time.   
169
ASUS44 KMAF 311810
RWRMAF
MIDLAND AREA WEATHER ROUNDUP
NATIONAL WEATHER SERVICE MIDLAND TX
100 PM CDT TUE MAR 31 2015

...IN SOUTHWEST TEXAS AND SOUTHEAST NEW MEXICO...

CITY           SKY/WX    TMP DP  RH WIND       PRES   REMARKS
ALPINE         CLOUDY    71  40  32 W13       30.22S
ANDREWS        FAIR      78  48  35 SW12      30.03F
ARTESIA        PTSUNNY   77  39  25 S7        30.04F
BIG SPRING     PTSUNNY   84  58  40 S9        30.02F
CARLSBAD       CLOUDY    70  51  51 VRB5      30.02F
DRYDEN           N/A     76  61  59 S8        30.03F
FORT STOCKTON  CLOUDY    79  46  31 VRB3      30.05R
GUAD PASS      CLOUDY    74  39  28 SW24G30   30.16F
HOBBS          MOSUNNY   75  50  41 S8        30.05F
MARFA          CLOUDY    70  39  32 S15       30.20F
MIDLAND AIRPK  CLOUDY    80  55  42 SW8       30.02F
MIDLAND INTL   CLOUDY    79  57  46 SW12      30.02F
ODESSA         CLOUDY    76  54  46 SW12      30.03F
PECOS          CLOUDY    72  56  56 CALM      30.02F
PRESIDIO       FAIR      78  45  31 S5        30.09F
SEMINOLE       CLOUDY    78  44  29 SW10      30.04S
SNYDER         MOSUNNY   79  60  51 S12       29.99F
WINK           CLOUDY    76  49  38 SW9       30.01F
$$
...OTHER STATIONS IN TEXAS...

CITY           SKY/WX    TMP DP  RH WIND       PRES   REMARKS
ABILENE        SUNNY     80  62  54 SW13      29.99F
AMARILLO       SUNNY     81  31  16 N5        30.01F
AUSTIN         PTSUNNY   76  62  62 S15       30.05F
BROWNSVILLE    CLOUDY    78  69  73 S20G26    30.05F
CORPUS CHRISTI PTSUNNY   77  68  73 S10       30.05F
DALLAS FTW     MOSUNNY   79  64  60 SW16G23   29.97F
DEL RIO        CLOUDY    73  64  73 SE13      30.01F HAZE
EL PASO        PTSUNNY   80  37  21 SW17      30.06F
HOUSTON INT    PTSUNNY   77  61  57 SW8       30.08F
LUBBOCK        PTSUNNY   79  45  29 S8        30.00F
SAN ANGELO     CLOUDY    79  62  56 S16G23    30.00F
SAN ANTONIO    CLOUDY    75  63  66 SW9G18    30.06F
WACO           MOSUNNY   77  63  61 S14       30.02F
WICHITA FALLS  NOT AVBL
$$
...OTHER LOCATIONS IN NEW MEXICO...

CITY           SKY/WX    TMP DP  RH WIND       PRES   REMARKS
ALAMAGORDO     PTSUNNY   75  32  20 SW8       30.08F
ALBUQUERQUE    MOSUNNY   71  25  17 W5        30.14F
CANNON AFB     SUNNY     80  27  14 VRB1      30.03F
CLOVIS         SUNNY     79  30  17 CALM      30.04S
HOLLOMAN AFB   CLOUDY    75  32  20 SW3       30.06F
ROSWELL        PTSUNNY   76  43  30 NE5       30.03F
RUIDOSO        CLOUDY    66  19  16 NW8       30.21F
SANTA FE       SUNNY     69  19  15 N5        30.17F
TRUTH OR CONSE MOSUNNY   76  26  15 E5        30.09F
TUCUMCARI      SUNNY     76  27  16 VRB3      30.03F
$$

USA.gov is the U.S. government's official web portal to all federal, state and local government web resources and services.